SND1 SEQM-SPZO

Flight info

Callsign SND1
Flight time 2h 17m
Altitude 37000
Route VURIS3 VURIS UP408 NILSA DCT DARKI
Aircraft A319/M-SDE3FGHIRWY/LB1

Departure

Time 2026-04-20 01:06
Airport Mariscal Sucre International Airport (SEQM)

Arrival

Time 2026-04-20 03:23
Airport Alejandro Velasco Astete International Airport (SPZO)
Time Latitude Longitude Altitude Speed Heading
2026-04-20 00:16 -0.12491 -78.35927 7841 ft 0 kts 267°
2026-04-20 00:56 -0.12489 -78.35903 7833 ft 4 kts 263°
2026-04-20 00:56 -0.12485 -78.35876 7833 ft 4 kts 257°
2026-04-20 00:56 -0.12477 -78.35851 7835 ft 4 kts 235°
2026-04-20 00:57 -0.12462 -78.35839 7831 ft 1 kts 178°
2026-04-20 00:57 -0.12458 -78.35839 7835 ft 0 kts 178°
2026-04-20 00:59 -0.12472 -78.35839 7831 ft 5 kts 178°
2026-04-20 00:59 -0.12524 -78.35837 7837 ft 10 kts 178°
2026-04-20 00:59 -0.12609 -78.35835 7841 ft 14 kts 178°
2026-04-20 01:00 -0.12677 -78.35824 7835 ft 15 kts 153°
2026-04-20 01:00 -0.12695 -78.35740 7845 ft 13 kts 88°
2026-04-20 01:00 -0.12690 -78.35655 7849 ft 11 kts 87°
2026-04-20 01:00 -0.12703 -78.35612 7857 ft 2 kts 133°
2026-04-20 01:01 -0.12727 -78.35601 7860 ft 7 kts 169°
2026-04-20 01:01 -0.12805 -78.35597 7865 ft 13 kts 177°
2026-04-20 01:01 -0.12895 -78.35594 7868 ft 13 kts 178°
2026-04-20 01:01 -0.12988 -78.35590 7872 ft 14 kts 177°
2026-04-20 01:02 -0.13081 -78.35585 7877 ft 13 kts 177°
2026-04-20 01:02 -0.13171 -78.35581 7892 ft 13 kts 177°
2026-04-20 01:02 -0.13263 -78.35576 7884 ft 14 kts 176°
2026-04-20 01:02 -0.13369 -78.35573 7885 ft 17 kts 178°
2026-04-20 01:03 -0.13492 -78.35568 7888 ft 18 kts 178°
2026-04-20 01:03 -0.13620 -78.35563 7893 ft 19 kts 178°
2026-04-20 01:03 -0.13752 -78.35558 7897 ft 20 kts 178°
2026-04-20 01:03 -0.13898 -78.35552 7899 ft 22 kts 178°
2026-04-20 01:04 -0.14052 -78.35545 7909 ft 22 kts 177°
2026-04-20 01:04 -0.14184 -78.35540 7915 ft 16 kts 176°
2026-04-20 01:04 -0.14256 -78.35481 7916 ft 13 kts 105°
2026-04-20 01:04 -0.14245 -78.35392 7919 ft 13 kts 63°
2026-04-20 01:05 -0.14125 -78.35371 7908 ft 34 kts 358°
2026-04-20 01:05 -0.13656 -78.35390 7893 ft 100 kts 358°
2026-04-20 01:05 -0.12765 -78.35427 7866 ft 155 kts 358°
2026-04-20 01:05 -0.11537 -78.35480 7968 ft 187 kts 358°
2026-04-20 01:06 -0.10244 -78.35534 8632 ft 187 kts 358°
2026-04-20 01:06 -0.08929 -78.35585 9267 ft 190 kts 358°
2026-04-20 01:06 -0.07588 -78.35644 9771 ft 201 kts 357°
2026-04-20 01:06 -0.06108 -78.35714 9952 ft 223 kts 356°
2026-04-20 01:07 -0.04467 -78.35798 10066 ft 250 kts 356°
2026-04-20 01:07 -0.02650 -78.35885 10405 ft 268 kts 356°
2026-04-20 01:07 -0.00767 -78.35963 11021 ft 274 kts 356°
2026-04-20 01:07 0.01149 -78.36039 11705 ft 277 kts 356°
2026-04-20 01:08 0.03074 -78.36217 12382 ft 279 kts 342°
2026-04-20 01:08 0.04692 -78.37204 13011 ft 280 kts 309°
2026-04-20 01:08 0.05513 -78.38944 13667 ft 281 kts 276°
2026-04-20 01:08 0.05239 -78.40865 14311 ft 285 kts 244°
2026-04-20 01:09 0.03946 -78.42351 14875 ft 290 kts 212°
2026-04-20 01:09 0.02021 -78.42930 15427 ft 296 kts 180°
2026-04-20 01:09 0.00019 -78.42426 15970 ft 301 kts 153°
2026-04-20 01:09 -0.01848 -78.41389 16319 ft 316 kts 151°
2026-04-20 01:10 -0.03819 -78.40270 16447 ft 336 kts 151°
2026-04-20 01:10 -0.08073 -78.37840 16699 ft 371 kts 151°
2026-04-20 01:10 -0.10349 -78.36536 17065 ft 380 kts 150°
2026-04-20 01:11 -0.12537 -78.35008 17561 ft 386 kts 140°
2026-04-20 01:11 -0.14443 -78.33096 18075 ft 390 kts 131°
2026-04-20 01:11 -0.16231 -78.31033 18600 ft 394 kts 132°
2026-04-20 01:11 -0.18040 -78.28953 19054 ft 397 kts 132°
2026-04-20 01:12 -0.19844 -78.26880 19518 ft 400 kts 132°
2026-04-20 01:12 -0.21676 -78.24771 19992 ft 403 kts 132°
2026-04-20 01:12 -0.23521 -78.22650 20470 ft 405 kts 132°
2026-04-20 01:12 -0.25378 -78.20519 20930 ft 408 kts 132°
2026-04-20 01:13 -0.27251 -78.18369 21395 ft 410 kts 132°
2026-04-20 01:13 -0.29107 -78.16237 21848 ft 412 kts 131°
2026-04-20 01:13 -0.30995 -78.14065 22301 ft 415 kts 131°
2026-04-20 01:13 -0.32907 -78.11868 22752 ft 417 kts 132°
2026-04-20 01:14 -0.35037 -78.09908 23153 ft 418 kts 144°
2026-04-20 01:14 -0.37544 -78.08432 23546 ft 419 kts 157°
2026-04-20 01:14 -0.40309 -78.07513 23922 ft 420 kts 169°
2026-04-20 01:14 -0.43216 -78.07193 24249 ft 421 kts 181°
2026-04-20 01:15 -0.46134 -78.07463 24590 ft 422 kts 189°
2026-04-20 01:15 -0.49007 -78.07890 24913 ft 424 kts 189°
2026-04-20 01:15 -0.51930 -78.08317 25242 ft 426 kts 188°
2026-04-20 01:15 -0.54888 -78.08744 25573 ft 427 kts 188°
2026-04-20 01:16 -0.57838 -78.09170 25897 ft 429 kts 188°
2026-04-20 01:16 -0.60807 -78.09598 26230 ft 431 kts 188°
2026-04-20 01:16 -0.63782 -78.10026 26550 ft 433 kts 188°
2026-04-20 01:16 -0.66734 -78.10452 26861 ft 435 kts 188°
2026-04-20 01:17 -0.69745 -78.10886 27177 ft 436 kts 188°
2026-04-20 01:17 -0.72754 -78.11318 27484 ft 438 kts 188°
2026-04-20 01:17 -0.75801 -78.11760 27793 ft 440 kts 188°
2026-04-20 01:17 -0.78840 -78.12204 28087 ft 442 kts 188°
2026-04-20 01:18 -0.81896 -78.12649 28377 ft 444 kts 188°
2026-04-20 01:18 -0.84961 -78.13096 28678 ft 446 kts 188°
2026-04-20 01:18 -0.88007 -78.13541 28956 ft 448 kts 188°
2026-04-20 01:18 -0.91098 -78.13992 29234 ft 450 kts 188°
2026-04-20 01:19 -0.94204 -78.14441 29526 ft 451 kts 188°
2026-04-20 01:19 -0.97318 -78.14890 29799 ft 453 kts 188°
2026-04-20 01:19 -1.00452 -78.15341 30061 ft 455 kts 188°
2026-04-20 01:19 -1.03598 -78.15796 30317 ft 457 kts 188°
2026-04-20 01:20 -1.06753 -78.16253 30544 ft 458 kts 188°
2026-04-20 01:20 -1.09939 -78.16519 30749 ft 460 kts 180°
2026-04-20 01:20 -1.13149 -78.16273 30957 ft 462 kts 171°
2026-04-20 01:20 -1.16240 -78.15528 31154 ft 464 kts 162°
2026-04-20 01:21 -1.19326 -78.14542 31366 ft 466 kts 162°
2026-04-20 01:21 -1.22413 -78.13561 31637 ft 465 kts 162°
2026-04-20 01:21 -1.25503 -78.12585 31979 ft 464 kts 162°
2026-04-20 01:21 -1.28579 -78.11615 32301 ft 462 kts 162°
2026-04-20 01:22 -1.31655 -78.10643 32611 ft 462 kts 162°
2026-04-20 01:22 -1.34724 -78.09672 32926 ft 461 kts 162°
2026-04-20 01:22 -1.37780 -78.08706 33255 ft 460 kts 162°
2026-04-20 01:22 -1.40800 -78.07751 33580 ft 460 kts 162°
2026-04-20 01:23 -1.43851 -78.06784 33906 ft 459 kts 162°
2026-04-20 01:23 -1.46896 -78.05819 34209 ft 458 kts 162°
2026-04-20 01:23 -1.49941 -78.04857 34473 ft 458 kts 162°
2026-04-20 01:23 -1.52914 -78.03722 34735 ft 457 kts 154°
2026-04-20 01:24 -1.55798 -78.02357 34985 ft 457 kts 154°
2026-04-20 01:24 -1.58641 -78.01012 35237 ft 457 kts 154°
2026-04-20 01:24 -1.61515 -77.99651 35492 ft 456 kts 154°
2026-04-20 01:24 -1.64389 -77.98295 35747 ft 455 kts 154°
2026-04-20 01:25 -1.67255 -77.96943 36011 ft 454 kts 154°
2026-04-20 01:25 -1.70111 -77.95596 36262 ft 454 kts 154°
2026-04-20 01:25 -1.72968 -77.94251 36497 ft 453 kts 154°
2026-04-20 01:25 -1.75815 -77.92909 36729 ft 453 kts 154°
2026-04-20 01:26 -1.78666 -77.91563 36953 ft 453 kts 154°
2026-04-20 01:26 -1.81523 -77.90214 37025 ft 452 kts 154°
2026-04-20 01:26 -1.87158 -77.87552 37038 ft 450 kts 154°
2026-04-20 01:27 -1.92839 -77.84876 37038 ft 450 kts 154°
2026-04-20 01:27 -1.98506 -77.82208 37022 ft 450 kts 154°
2026-04-20 01:28 -2.04174 -77.79524 37029 ft 450 kts 154°
2026-04-20 01:28 -2.09819 -77.76855 37017 ft 450 kts 154°
2026-04-20 01:29 -2.15497 -77.74176 37019 ft 451 kts 154°
2026-04-20 01:29 -2.21178 -77.71495 37010 ft 451 kts 154°
2026-04-20 01:30 -2.26857 -77.68808 37001 ft 451 kts 154°
2026-04-20 01:30 -2.32504 -77.66143 37002 ft 451 kts 154°
2026-04-20 01:31 -2.38181 -77.63462 36995 ft 451 kts 154°
2026-04-20 01:31 -2.43864 -77.60776 36993 ft 451 kts 154°
2026-04-20 01:32 -2.49551 -77.58086 36985 ft 451 kts 154°
2026-04-20 01:32 -2.55213 -77.55413 36975 ft 451 kts 154°
2026-04-20 01:33 -2.60863 -77.52749 36976 ft 451 kts 154°
2026-04-20 01:33 -2.66537 -77.50065 36967 ft 451 kts 154°
2026-04-20 01:34 -2.72217 -77.47377 36962 ft 451 kts 154°
2026-04-20 01:34 -2.77897 -77.44694 36966 ft 451 kts 154°
2026-04-20 01:35 -2.83540 -77.42033 36958 ft 451 kts 154°
2026-04-20 01:35 -2.89217 -77.39348 36954 ft 451 kts 154°
2026-04-20 01:36 -2.94895 -77.36662 36952 ft 451 kts 154°
2026-04-20 01:36 -3.00567 -77.33983 36954 ft 451 kts 154°
2026-04-20 01:37 -3.06227 -77.31315 36953 ft 451 kts 154°
2026-04-20 01:37 -3.11900 -77.28636 36949 ft 451 kts 154°
2026-04-20 01:38 -3.17584 -77.25948 36950 ft 451 kts 154°
2026-04-20 01:38 -3.23265 -77.23262 36955 ft 451 kts 154°
2026-04-20 01:39 -3.28900 -77.20602 36951 ft 450 kts 154°
2026-04-20 01:39 -3.34582 -77.17923 36946 ft 450 kts 154°
2026-04-20 01:40 -3.40256 -77.15238 36944 ft 450 kts 154°
2026-04-20 01:40 -3.44962 -77.13013 36944 ft 450 kts 154°
2026-04-20 01:41 -3.50620 -77.10336 36942 ft 450 kts 154°
2026-04-20 01:41 -3.57211 -77.07220 36943 ft 450 kts 154°
2026-04-20 01:42 -3.61948 -77.04976 36943 ft 450 kts 154°
2026-04-20 01:42 -3.67581 -77.02318 36941 ft 449 kts 154°
2026-04-20 01:43 -3.73241 -76.99643 36937 ft 448 kts 154°
2026-04-20 01:43 -3.78877 -76.96975 36928 ft 448 kts 154°
2026-04-20 01:44 -3.84494 -76.94323 36924 ft 448 kts 154°
2026-04-20 01:44 -3.90133 -76.91651 36914 ft 448 kts 154°
2026-04-20 01:45 -3.95781 -76.88972 36918 ft 449 kts 154°
2026-04-20 01:45 -4.01439 -76.86295 36914 ft 449 kts 154°
2026-04-20 01:46 -4.07053 -76.83637 36906 ft 449 kts 154°
2026-04-20 01:46 -4.12712 -76.80956 36905 ft 449 kts 154°
2026-04-20 01:47 -4.18358 -76.78287 36905 ft 449 kts 154°
2026-04-20 01:47 -4.24024 -76.75610 36901 ft 449 kts 154°
2026-04-20 01:48 -4.29678 -76.72920 36890 ft 450 kts 154°
2026-04-20 01:48 -4.35341 -76.70233 36895 ft 450 kts 154°
2026-04-20 01:49 -4.41006 -76.67554 36895 ft 450 kts 154°
2026-04-20 01:49 -4.46631 -76.64893 36891 ft 450 kts 154°
2026-04-20 01:50 -4.52299 -76.62195 36894 ft 450 kts 154°
2026-04-20 01:50 -4.57926 -76.59530 36890 ft 450 kts 154°
2026-04-20 01:51 -4.63610 -76.56840 36890 ft 450 kts 154°
2026-04-20 01:51 -4.69272 -76.54156 36890 ft 450 kts 154°
2026-04-20 01:52 -4.74903 -76.51483 36888 ft 449 kts 154°
2026-04-20 01:52 -4.80557 -76.48796 36889 ft 449 kts 154°
2026-04-20 01:53 -4.86224 -76.46108 36886 ft 449 kts 154°
2026-04-20 01:53 -4.91840 -76.43446 36885 ft 449 kts 154°
2026-04-20 01:54 -4.97494 -76.40757 36884 ft 449 kts 154°
2026-04-20 01:54 -5.03158 -76.38068 36887 ft 449 kts 154°
2026-04-20 01:55 -5.08818 -76.35384 36882 ft 449 kts 154°
2026-04-20 01:55 -5.14467 -76.32699 36884 ft 449 kts 154°
2026-04-20 01:56 -5.20084 -76.30022 36880 ft 449 kts 154°
2026-04-20 01:56 -5.25722 -76.27336 36878 ft 449 kts 154°
2026-04-20 01:57 -5.31366 -76.24666 36877 ft 449 kts 154°
2026-04-20 01:57 -5.36997 -76.21926 36872 ft 448 kts 152°
2026-04-20 01:58 -5.42479 -76.18940 36872 ft 448 kts 150°
2026-04-20 01:58 -5.47936 -76.15865 36873 ft 449 kts 150°
2026-04-20 01:59 -5.53381 -76.12860 36870 ft 449 kts 150°
2026-04-20 01:59 -5.58880 -76.09877 36872 ft 449 kts 151°
2026-04-20 02:00 -5.64389 -76.06895 36870 ft 449 kts 151°
2026-04-20 02:00 -5.69907 -76.03893 36870 ft 450 kts 150°
2026-04-20 02:01 -5.75409 -76.00895 36871 ft 450 kts 150°
2026-04-20 02:01 -5.80872 -75.97912 36870 ft 450 kts 150°
2026-04-20 02:02 -5.86397 -75.94901 36873 ft 451 kts 151°
2026-04-20 02:02 -5.91923 -75.91904 36874 ft 451 kts 151°
2026-04-20 02:03 -5.97439 -75.88898 36886 ft 451 kts 151°
2026-04-20 02:03 -6.02920 -75.85907 36885 ft 450 kts 151°
2026-04-20 02:04 -6.08437 -75.82897 36880 ft 450 kts 151°
2026-04-20 02:04 -6.13951 -75.79891 36878 ft 451 kts 151°
2026-04-20 02:05 -6.19473 -75.76883 36877 ft 451 kts 151°
2026-04-20 02:05 -6.24966 -75.73895 36881 ft 451 kts 151°
2026-04-20 02:06 -6.30497 -75.70879 36878 ft 452 kts 151°
2026-04-20 02:06 -6.36021 -75.67864 36875 ft 452 kts 151°
2026-04-20 02:07 -6.41560 -75.64828 36872 ft 452 kts 151°
2026-04-20 02:07 -6.47051 -75.61826 36873 ft 452 kts 151°
2026-04-20 02:08 -6.52605 -75.58800 36872 ft 452 kts 151°
2026-04-20 02:08 -6.58111 -75.55795 36878 ft 453 kts 151°
2026-04-20 02:09 -6.63659 -75.52761 36881 ft 453 kts 151°
2026-04-20 02:09 -6.69209 -75.49715 36882 ft 453 kts 151°
2026-04-20 02:10 -6.74758 -75.46672 36882 ft 453 kts 151°
2026-04-20 02:10 -6.80271 -75.43649 36879 ft 454 kts 151°
2026-04-20 02:11 -6.85839 -75.40617 36881 ft 454 kts 151°
2026-04-20 02:11 -6.91389 -75.37588 36880 ft 453 kts 151°
2026-04-20 02:12 -6.96901 -75.34563 36876 ft 453 kts 151°
2026-04-20 02:12 -7.02438 -75.31524 36877 ft 453 kts 151°
2026-04-20 02:13 -7.07988 -75.28486 36873 ft 453 kts 151°
2026-04-20 02:13 -7.13537 -75.25455 36876 ft 453 kts 150°
2026-04-20 02:14 -7.19043 -75.22434 36872 ft 453 kts 150°
2026-04-20 02:14 -7.24585 -75.19396 36869 ft 453 kts 150°
2026-04-20 02:15 -7.30137 -75.16344 36871 ft 453 kts 150°
2026-04-20 02:15 -7.35638 -75.13322 36885 ft 453 kts 150°
2026-04-20 02:16 -7.41182 -75.10288 36891 ft 453 kts 150°
2026-04-20 02:16 -7.46737 -75.07249 36890 ft 454 kts 150°
2026-04-20 02:17 -7.52300 -75.04201 36896 ft 454 kts 150°
2026-04-20 02:17 -7.57851 -75.01149 36896 ft 454 kts 150°
2026-04-20 02:18 -7.63397 -74.98095 36896 ft 454 kts 150°
2026-04-20 02:18 -7.68907 -74.95056 36894 ft 453 kts 150°
2026-04-20 02:19 -7.74467 -74.92003 36896 ft 453 kts 150°
2026-04-20 02:19 -7.80003 -74.88962 36896 ft 453 kts 150°
2026-04-20 02:20 -7.85501 -74.85930 36891 ft 453 kts 150°
2026-04-20 02:20 -7.91038 -74.82882 36891 ft 452 kts 150°
2026-04-20 02:21 -7.99328 -74.78323 36891 ft 452 kts 150°
2026-04-20 02:22 -8.04864 -74.75283 36895 ft 452 kts 150°
2026-04-20 02:22 -8.10363 -74.72257 36897 ft 452 kts 150°
2026-04-20 02:23 -8.15895 -74.69197 36901 ft 452 kts 150°
2026-04-20 02:23 -8.21423 -74.66144 36905 ft 452 kts 150°
2026-04-20 02:24 -8.26947 -74.63101 36903 ft 452 kts 150°
2026-04-20 02:24 -8.32438 -74.60076 36902 ft 452 kts 150°
2026-04-20 02:25 -8.37972 -74.57029 36902 ft 452 kts 150°
2026-04-20 02:25 -8.42523 -74.54410 36899 ft 452 kts 148°
2026-04-20 02:26 -8.47929 -74.51149 36895 ft 452 kts 148°
2026-04-20 02:26 -8.53330 -74.47880 36893 ft 452 kts 148°
2026-04-20 02:27 -8.58753 -74.44645 36896 ft 453 kts 148°
2026-04-20 02:27 -8.64156 -74.41448 36897 ft 453 kts 148°
2026-04-20 02:28 -8.69609 -74.38219 36897 ft 453 kts 148°
2026-04-20 02:28 -8.75056 -74.34978 36897 ft 453 kts 148°
2026-04-20 02:29 -8.80465 -74.31755 36900 ft 454 kts 148°
2026-04-20 02:29 -8.85917 -74.28511 36905 ft 455 kts 148°
2026-04-20 02:30 -8.91385 -74.25260 36905 ft 455 kts 148°
2026-04-20 02:30 -8.96859 -74.22001 36913 ft 456 kts 148°
2026-04-20 02:31 -9.02306 -74.18757 36910 ft 456 kts 148°
2026-04-20 02:31 -9.07779 -74.15499 36906 ft 455 kts 149°
2026-04-20 02:32 -9.13243 -74.12251 36909 ft 455 kts 148°
2026-04-20 02:32 -9.18708 -74.08985 36908 ft 456 kts 148°
2026-04-20 02:33 -9.24176 -74.05721 36906 ft 456 kts 148°
2026-04-20 02:33 -9.29611 -74.02477 36910 ft 456 kts 148°
2026-04-20 02:34 -9.35084 -73.99205 36914 ft 457 kts 148°
2026-04-20 02:34 -9.40581 -73.95929 36918 ft 457 kts 149°
2026-04-20 02:35 -9.46067 -73.92656 36922 ft 457 kts 149°
2026-04-20 02:35 -9.51514 -73.89387 36921 ft 457 kts 148°
2026-04-20 02:36 -9.56996 -73.86102 36924 ft 457 kts 149°
2026-04-20 02:36 -9.62486 -73.82833 36929 ft 458 kts 150°
2026-04-20 02:37 -9.68439 -73.80585 36929 ft 458 kts 166°
2026-04-20 02:37 -9.74632 -73.79083 36928 ft 458 kts 166°
2026-04-20 02:38 -9.80833 -73.77560 36935 ft 458 kts 166°
2026-04-20 02:38 -9.87047 -73.76034 36933 ft 459 kts 166°
2026-04-20 02:39 -9.93264 -73.74511 36938 ft 459 kts 166°
2026-04-20 02:39 -9.99473 -73.72989 36938 ft 459 kts 166°
2026-04-20 02:40 -10.05657 -73.71473 36940 ft 459 kts 166°
2026-04-20 02:40 -10.11864 -73.69962 36937 ft 459 kts 166°
2026-04-20 02:41 -10.18082 -73.68436 36937 ft 458 kts 166°
2026-04-20 02:41 -10.24245 -73.66920 36940 ft 459 kts 166°
2026-04-20 02:42 -10.30450 -73.65398 36938 ft 458 kts 166°
2026-04-20 02:42 -10.36664 -73.63872 36937 ft 458 kts 166°
2026-04-20 02:43 -10.42871 -73.62349 36938 ft 459 kts 166°
2026-04-20 02:43 -10.49087 -73.60827 36938 ft 459 kts 166°
2026-04-20 02:44 -10.55266 -73.59307 36940 ft 459 kts 166°
2026-04-20 02:44 -10.61488 -73.57783 36944 ft 460 kts 166°
2026-04-20 02:45 -10.67713 -73.56257 36950 ft 460 kts 166°
2026-04-20 02:45 -10.73941 -73.54717 36953 ft 460 kts 166°
2026-04-20 02:46 -10.80179 -73.53169 36961 ft 460 kts 166°
2026-04-20 02:46 -10.86369 -73.51643 36959 ft 460 kts 166°
2026-04-20 02:47 -10.92594 -73.50109 36955 ft 460 kts 166°
2026-04-20 02:47 -10.98826 -73.48573 36961 ft 460 kts 166°
2026-04-20 02:48 -11.05051 -73.47041 36960 ft 459 kts 166°
2026-04-20 02:48 -11.11239 -73.45524 36961 ft 459 kts 166°
2026-04-20 02:49 -11.17441 -73.43995 36962 ft 459 kts 166°
2026-04-20 02:49 -11.23651 -73.42451 36963 ft 459 kts 166°
2026-04-20 02:50 -11.29857 -73.40914 36974 ft 459 kts 166°
2026-04-20 02:50 -11.36069 -73.39380 36978 ft 459 kts 166°
2026-04-20 02:51 -11.42277 -73.37849 36979 ft 458 kts 166°
2026-04-20 02:51 -11.48439 -73.36322 36977 ft 458 kts 166°
2026-04-20 02:52 -11.54640 -73.34792 36982 ft 458 kts 166°
2026-04-20 02:52 -11.60853 -73.33260 36983 ft 458 kts 166°
2026-04-20 02:53 -11.67059 -73.31718 36982 ft 459 kts 166°
2026-04-20 02:53 -11.73269 -73.30173 36988 ft 459 kts 167°
2026-04-20 02:54 -11.79440 -73.28645 36989 ft 459 kts 167°
2026-04-20 02:54 -11.85652 -73.27109 36990 ft 459 kts 167°
2026-04-20 02:55 -11.91865 -73.25566 36994 ft 459 kts 167°
2026-04-20 02:55 -11.98087 -73.24020 36996 ft 459 kts 167°
2026-04-20 02:56 -12.04310 -73.22474 36995 ft 460 kts 167°
2026-04-20 02:56 -12.10491 -73.20939 37002 ft 460 kts 167°
2026-04-20 02:57 -12.16712 -73.19400 37006 ft 460 kts 167°
2026-04-20 02:57 -12.22943 -73.17852 37009 ft 460 kts 167°
2026-04-20 02:58 -12.29167 -73.16295 37010 ft 460 kts 167°
2026-04-20 02:58 -12.35356 -73.14752 37011 ft 460 kts 167°
2026-04-20 02:59 -12.41583 -73.13203 37012 ft 460 kts 167°
2026-04-20 02:59 -12.47810 -73.11653 37018 ft 460 kts 167°
2026-04-20 03:00 -12.54042 -73.10102 37027 ft 460 kts 167°
2026-04-20 03:00 -12.60275 -73.08547 37034 ft 460 kts 167°
2026-04-20 03:01 -12.66460 -73.06996 37041 ft 461 kts 167°
2026-04-20 03:01 -12.72686 -73.05440 37050 ft 461 kts 167°
2026-04-20 03:02 -12.78929 -73.03880 37068 ft 461 kts 167°
2026-04-20 03:02 -12.85176 -73.02322 37077 ft 461 kts 167°
2026-04-20 03:03 -12.91417 -73.00766 37092 ft 461 kts 167°
2026-04-20 03:03 -12.97630 -72.99210 37115 ft 462 kts 167°
2026-04-20 03:04 -13.03875 -72.97643 37122 ft 462 kts 167°
2026-04-20 03:04 -13.09077 -72.96342 37132 ft 462 kts 167°
2026-04-20 03:05 -13.15331 -72.94775 37138 ft 462 kts 167°
2026-04-20 03:05 -13.22606 -72.92943 37143 ft 462 kts 167°
2026-04-20 03:06 -13.27804 -72.91641 37145 ft 463 kts 167°
2026-04-20 03:06 -13.34066 -72.90070 37010 ft 464 kts 167°
2026-04-20 03:06 -13.37190 -72.89261 36768 ft 463 kts 164°
2026-04-20 03:07 -13.40176 -72.87987 36515 ft 465 kts 151°
2026-04-20 03:07 -13.42829 -72.86092 36269 ft 466 kts 139°
2026-04-20 03:07 -13.45033 -72.83640 36029 ft 467 kts 126°
2026-04-20 03:07 -13.46673 -72.80763 35786 ft 468 kts 113°
2026-04-20 03:08 -13.47696 -72.77633 35554 ft 469 kts 104°
2026-04-20 03:08 -13.48545 -72.74390 35322 ft 470 kts 104°
2026-04-20 03:08 -13.49400 -72.71139 34948 ft 470 kts 104°
2026-04-20 03:08 -13.50262 -72.67888 34250 ft 472 kts 105°
2026-04-20 03:09 -13.51135 -72.64624 33448 ft 474 kts 105°
2026-04-20 03:09 -13.52011 -72.61359 32886 ft 470 kts 105°
2026-04-20 03:09 -13.52878 -72.58126 32330 ft 467 kts 105°
2026-04-20 03:09 -13.53725 -72.54951 31781 ft 463 kts 105°
2026-04-20 03:10 -13.54567 -72.51771 31250 ft 460 kts 105°
2026-04-20 03:10 -13.55400 -72.48604 30646 ft 459 kts 105°
2026-04-20 03:10 -13.56229 -72.45445 30013 ft 458 kts 105°
2026-04-20 03:10 -13.57056 -72.42288 29395 ft 455 kts 105°
2026-04-20 03:11 -13.57868 -72.39168 28818 ft 450 kts 104°
2026-04-20 03:11 -13.58671 -72.36066 28242 ft 447 kts 104°
2026-04-20 03:11 -13.59463 -72.33011 27749 ft 437 kts 104°
2026-04-20 03:11 -13.60237 -72.30043 27175 ft 431 kts 104°
2026-04-20 03:12 -13.61014 -72.27088 26622 ft 425 kts 104°
2026-04-20 03:12 -13.61783 -72.24170 26073 ft 420 kts 104°
2026-04-20 03:12 -13.62545 -72.21282 25548 ft 416 kts 104°
2026-04-20 03:12 -13.63296 -72.18428 25048 ft 412 kts 104°
2026-04-20 03:13 -13.64040 -72.15593 24546 ft 408 kts 104°
2026-04-20 03:13 -13.64772 -72.12792 24053 ft 404 kts 104°
2026-04-20 03:13 -13.65499 -72.10022 23480 ft 400 kts 104°
2026-04-20 03:13 -13.66222 -72.07272 22902 ft 396 kts 104°
2026-04-20 03:14 -13.66936 -72.04551 22340 ft 392 kts 104°
2026-04-20 03:14 -13.67641 -72.01858 21785 ft 387 kts 104°
2026-04-20 03:14 -13.68467 -71.99225 21349 ft 385 kts 111°
2026-04-20 03:14 -13.69572 -71.96735 20909 ft 382 kts 118°
2026-04-20 03:15 -13.70881 -71.94407 20475 ft 379 kts 121°
2026-04-20 03:15 -13.72207 -71.92108 20314 ft 367 kts 120°
2026-04-20 03:15 -13.73485 -71.89884 20172 ft 355 kts 120°
2026-04-20 03:15 -13.74723 -71.87723 20035 ft 344 kts 120°
2026-04-20 03:16 -13.75919 -71.85632 19900 ft 334 kts 120°
2026-04-20 03:16 -13.76970 -71.83546 19743 ft 325 kts 110°
2026-04-20 03:16 -13.77509 -71.81312 19485 ft 319 kts 96°
2026-04-20 03:16 -13.77532 -71.79047 19147 ft 316 kts 83°
2026-04-20 03:17 -13.77065 -71.76843 18800 ft 314 kts 71°
2026-04-20 03:17 -13.76143 -71.74817 18403 ft 312 kts 58°
2026-04-20 03:17 -13.74807 -71.73065 17975 ft 310 kts 45°
2026-04-20 03:17 -13.73142 -71.71688 17689 ft 302 kts 32°
2026-04-20 03:18 -13.71285 -71.70739 17371 ft 295 kts 19°
2026-04-20 03:18 -13.69340 -71.70242 17080 ft 287 kts
2026-04-20 03:18 -13.67398 -71.70172 16966 ft 273 kts 355°
2026-04-20 03:18 -13.65572 -71.70474 16835 ft 261 kts 344°
2026-04-20 03:19 -13.63895 -71.71092 16532 ft 253 kts 335°
2026-04-20 03:19 -13.62374 -71.71988 16095 ft 251 kts 324°
2026-04-20 03:19 -13.61051 -71.73154 15672 ft 249 kts 314°
2026-04-20 03:19 -13.59979 -71.74534 15254 ft 247 kts 303°
2026-04-20 03:20 -13.59173 -71.76089 14844 ft 245 kts 293°
2026-04-20 03:20 -13.58544 -71.77712 14424 ft 243 kts 292°
2026-04-20 03:20 -13.57911 -71.79318 13972 ft 242 kts 293°
2026-04-20 03:20 -13.57285 -71.80903 13419 ft 238 kts 293°
2026-04-20 03:21 -13.56683 -71.82458 12956 ft 235 kts 291°
2026-04-20 03:21 -13.56161 -71.83969 12871 ft 212 kts 289°
2026-04-20 03:21 -13.55695 -71.85309 12799 ft 185 kts 293°
2026-04-20 03:21 -13.55147 -71.86445 12506 ft 177 kts 299°
2026-04-20 03:22 -13.54555 -71.87542 12036 ft 172 kts 295°
2026-04-20 03:22 -13.54195 -71.88673 11616 ft 162 kts 283°
2026-04-20 03:22 -13.54014 -71.89801 11337 ft 158 kts 278°
2026-04-20 03:22 -13.53879 -71.90915 11042 ft 155 kts 277°
2026-04-20 03:23 -13.53767 -71.92011 10832 ft 153 kts 276°
2026-04-20 03:23 -13.53660 -71.93079 10759 ft 142 kts 277°
2026-04-20 03:23 -13.53569 -71.93911 10789 ft 77 kts 275°
2026-04-20 03:23 -13.53537 -71.94246 10808 ft 26 kts 276°
2026-04-20 03:24 -13.53556 -71.94338 10812 ft 9 kts 201°
2026-04-20 03:24 -13.53615 -71.94345 10812 ft 8 kts 186°
2026-04-20 03:24 -13.53659 -71.94334 10811 ft 7 kts 134°
2026-04-20 03:24 -13.53672 -71.94276 10808 ft 9 kts 107°
2026-04-20 03:25 -13.53714 -71.94280 10810 ft 6 kts 231°
2026-04-20 03:25 -13.53722 -71.94304 10810 ft 1 kts 256°
2026-04-20 03:25 -13.53723 -71.94308 10810 ft 1 kts 256°
2026-04-20 03:25 -13.53724 -71.94314 10810 ft 1 kts 255°
2026-04-20 03:26 -13.53726 -71.94323 10811 ft 2 kts 256°
2026-04-20 03:26 -13.53727 -71.94326 10811 ft 0 kts 256°